sat.trackr.live / text

‹ back to catalog

STARLINK-32493

NORAD 62025 · 2024-213T

PAYLOAD ACTIVE UNKNOWN

§ Identity

Operator
Country
US
Launch date
2024-11-18
Launch site
AFWTR
Launch vehicle
Mass (kg)
RCS (m²)

Purposes: comms

External: N2YO · Heavens-Above · Gunter

§ Orbital elements

Epoch: 2026-09-21T11:32:32.221536Z

Period
93.85 min
Inclination
53.1598°
Eccentricity
0.0000992
Mean motion
15.34404624 rev/d
Perigee alt
462.0 km
Apogee alt
463.4 km
Semi-major
6,840.8 km
B*
3.3378e-4
RAAN
334.9898°
Arg perigee
82.9144°
Mean anomaly
277.1971°
Rev number
10,318

§ Raw data

STARLINK-324931 62025U 24213T   26264.48092849  .00010919  00000+0  33378-3 0  99972 62025  53.1598 334.9898 0000992  82.9144 277.1971 15.34404624103180

JSON: /api/v1/satellites/62025 · /tle

For live sub-satellite position, see the globe view (requires WebGL).

§ Visibility from observer

Set your observer location to see the next 7 days of passes ≥ 10°. The values pass through the URL so the page stays shareable.

No JS? Fill the form by hand. The geolocation button needs JavaScript.